www.pogodaiklimat.ru

ПОГОДА в Кайлуа-Коне, HI

  • Прогноз погоды в Кайлуа-Коне
  • Монитор погоды в Кайлуа-Коне
  • Климат в Кайлуа-Коне

АРХИВ ПОГОДЫ в Кайлуа-Коне

Время (UTC), дата Ветер
(напр.,м/с)
 
Видим.   Явления Облачность Т
(С)
Тd
(С)
f
(%)
Тe
(С)
Тes
(С)
Комфортность

P
(гПа)

Po
(гПа)
Тmin
(С)
Tmax
(С)
R
(мм)
SD
(см)
13:53 20.08 нст  16 км    5/5 1170 м  +24.4  +19.4  74  +30  +30  очень
душно 
1013.5  1011.9         
14:53 20.08 В  16 км    2/2 1260 м  +25.0  +19.4  71  +30  +30  душно  1013.5  1011.9         
15:53 20.08 ЮВ  16 км    2/2 1260 м  +23.9  +19.4  76  +29  +29  душно  1014.1  1012.5         
16:53 20.08 Ю  16 км    5/5 1500 м  +27.2  +20.6  67  +34  +34  очень
душно 
1014.4  1012.9  +23.9  +27.2     
17:53 20.08 Ю  16 км    5/5 1500 м  +27.8  +20.0  63  +34  +35  очень
душно 
1014.8  1013.2         
18:53 20.08 Ю  16 км    5/5 1650 м  +28.9  +20.6  61  +36  +39  очень
душно 
1014.8  1013.2         
19:53 20.08 ЮЗ  16 км    5/5 1500 м  +29.4  +21.1  61  +37  +39  очень
душно 
1014.6  1012.9         
20:53 20.08 ЮЗ  16 км    5/5 1260 м  +29.4  +21.1  61  +37  +40  очень
душно 
1014.4  1012.5         
21:53 20.08 ЮЗ  16 км    5/5 1260 м  +30.0  +21.1  59  +38  +42  очень
душно 
1013.9  1012.2         
22:53 20.08 З  16 км    8/8 1350 м  +29.4  +21.1  61  +37  +39  очень
душно 
1013.3  1011.5  +27.2  +30.6     
23:53 20.08 ЮЗ  16 км    8/8 1650 м  +30.0  +21.1  59  +38  +39  очень
душно 
1012.9  1011.2         
00:53 21.08 ЮЗ  16 км    8/8 1650 м  +30.0  +21.7  61  +38  +39  очень
душно 
1012.9  1011.2         
01:53 21.08 ЮЗ  16 км    8/8 1200 м  +28.9  +21.7  65  +37  +38  очень
душно 
1013.0  1011.2         
02:53 21.08 Ю  16 км    5/5 1290 м  +28.9  +22.2  67  +38  +39  очень
душно 
1013.2  1011.5         
03:53 21.08 Ю  16 км    10/10 1290 м  +28.3  +22.2  70  +37  +37  очень
душно 
1014.1  1012.5         
04:53 21.08 Ю  16 км    10/10 1290 м  +28.3  +21.7  67  +36  +36  очень
душно 
1014.8  1013.2  +28.3  +30.6     
05:53 21.08 ЮВ  16 км    5/5 1290 м  +28.3  +21.1  65  +36  +36  очень
душно 
1015.5  1013.9         
06:53 21.08 ЮВ  16 км    ясно  +27.2  +21.7  72  +35  +35  очень
душно 
1015.9  1014.2         
07:53 21.08 ЮВ  16 км    ясно  +27.2  +21.7  72  +35  +35  очень
душно 
1015.9  1014.2         
08:53 21.08 В  16 км    ясно  +26.7  +21.7  74  +34  +34  очень
душно 
1015.7  1013.9         
09:53 21.08 В  16 км    ясно  +26.1  +21.1  74  +33  +33  очень
душно 
1015.4  1013.9         
10:53 21.08 В  16 км    8/8 1080 м  +26.1  +21.1  74  +33  +33  очень
душно 
1015.1  1013.6  +26.1  +28.3     
11:53 21.08 В  16 км    10/10 1080 м  +26.1  +21.1  74  +33  +33  очень
душно 
1014.6  1012.9         
12:53 21.08 В  16 км    2/2 1020 м  +26.1  +21.1  74  +33  +33  очень
душно 
1014.7  1012.9         
13:53 21.08 В  16 км    2/2 870 м  +25.6  +21.1  76  +32  +32  очень
душно 
1014.6  1012.9         
14:53 21.08 В  16 км    5/0 2100 м
[средняя] 
+25.6  +20.0  71  +31  +31  очень
душно 
1015.1  1013.6         
15:53 21.08 В  16 км    2/0 2100 м
[средняя] 
+26.7  +20.0  67  +33  +33  очень
душно 
1015.4  1013.9         
16:53 21.08 Ю  16 км    2/0 2100 м
[средняя] 
+27.8  +22.2  72  +36  +37  очень
душно 
1015.7  1013.9  +25.0  +27.8     
17:53 21.08 Ю  16 км    5/5 1650 м  +28.3  +22.8  72  +38  +39  очень
душно 
1015.9  1014.2         
18:53 21.08 Ю  16 км    5/5 1200 м  +30.0  +22.8  65  +40  +42  очень
душно 
1016.0  1014.2         
19:53 21.08 Ю  16 км    5/5 1500 м  +30.0  +23.3  67  +40  +43  очень
душно 
1015.6  1013.9         
20:53 21.08 Ю  16 км    5/5 1200 м
[средняя] 
+30.6  +23.3  65  +41  +44  опасность
перегрева 
1015.6  1013.9         
21:53 21.08 ЮЗ  16 км    8/8 1200 м  +30.0  +23.3  67  +40  +43  очень
душно 
1015.5  1013.9         
22:53 21.08 ЮЗ  16 км    8/8 1050 м  +29.4  +23.3  70  +40  +42  очень
душно 
1015.1  1013.6  +27.8  +31.7     
23:53 21.08 ЮЗ  16 км    8/8 1080 м  +29.4  +23.3  70  +40  +42  очень
душно 
1014.8  1013.2         
00:53 22.08 ЮЗ  16 км    8/8 1110 м  +28.9  +23.3  72  +39  +41  очень
душно 
1014.7  1012.9         
01:53 22.08 Ю  16 км    8/8 1140 м  +28.9  +23.3  72  +39  +41  очень
душно 
1014.7  1012.9         
02:33 22.08 В  16 км    10/10 660 м  +27.2  +23.9  82  +37  +37  очень
душно 
  1013.2         
02:49 22.08 ЮВ  14 км    10/10 660 м  +27.0  +24.0  84  +37  +37  очень
душно 
  1013.2         
02:53 22.08 ЮВ  16 км  дымка  8/8 660 м  +27.2  +24.4  85  +38  +39  очень
душно 
1015.0  1013.2         
03:53 22.08 Ю  16 км    8/8 1500 м  +27.8  +23.9  79  +38  +38  очень
душно 
1015.1  1013.6         
04:53 22.08 ЮВ  16 км    10/10 1440 м  +27.8  +23.3  77  +38  +38  очень
душно 
1015.5  1013.9  +26.7  +30.0     
05:53 22.08 С  16 км    5/5 930 м  +27.8  +22.8  74  +37  +37  очень
душно 
1015.9  1014.2         
06:53 22.08 ЮВ  16 км    ясно  +26.7  +22.8  79  +35  +35  очень
душно 
1015.9  1014.2         
07:53 22.08 ЮВ  16 км    ясно  +26.1  +23.3  85  +35  +35  очень
душно 
1015.7  1013.9         
08:53 22.08 В  16 км    ясно  +26.7  +22.8  79  +35  +35  очень
душно 
1015.5  1013.9         
09:53 22.08 ЮВ  16 км    ясно  +26.7  +22.8  79  +35  +35  очень
душно 
1015.1  1013.6         
10:53 22.08 В  16 км    ясно  +26.1  +22.2  79  +34  +34  очень
душно 
1014.7  1012.9  +26.1  +27.8     

 

Местоположение метеостанции Keahole Airport: широта 19.7408 долгота -156.0506 высота над уровнем моря 13 м.

В архиве по умолчанию представлена погода в Кайлуа-Коне за последние 1-2 суток. Обновление информации о фактической погоде в базе происходит ежечасно! Архивные данные за месяц целиком и за предыдущие месяцы Вы можете получить, выбрав интересующий диапазон дат из раскрывающегося списка и нажав кнопку "Ввод!".

Внимание! Архив погоды МЕТАР в базе сайта хранится не более 60 дней. Нет смысла пытаться выбрать более раннюю дату.

Внимание! Время в таблицах - всемирное. Для получения местного времени необходимо прибавить поправку, которая в Кайлуа-Коне равна -10 ч.

Ветер - указаны скорость ветра в м/с и направление, откуда дует ветер: С - северный, СВ - северо-восточный, В - восточный, ЮВ - юго-восточный, Ю - южный, ЮЗ - юго-западный, З - западный, СЗ - северо-западный.
Видимость - горизонтальная дальность видимости в метрах или километрах. При видимости от 1 до 10 км при отсутствии осадков обычно наблюдается дымка, при ухудшении видимости до 1 км и менее - туман. В сухую погоду видимость может ухудшаться дымом, пылью или мглою.
Атмосферные явления - указаны явления, наблюдавшиеся в указанный момент времени.
Облачность - указаны через наклонную черту верхняя и нижняя облачность в баллах и высота нижней границы облаков в метрах. Внимание: облачность, как и прочие метеорологические величины в США измеряются автоматическими метеостанциями. Указанные значения в баллах носят условный характер и показывают процент времени, в течение которого, в среднем, лазерный луч высотомера отражался от облаков обратно.
T - Температура воздуха - температура, измеренная на высоте 2 м над землей.
Td - Температура точки росы - температура, при понижении до которой содержащийся в воздухе водяной пар достигнет насыщения.
f - Относительная влажность воздуха - влажноcть воздуха, измеренная на высоте 2 м над землей.
Te - Эффективная температура - температура, которую ощущает одетый по сезону человек в тени. Характеристика душности погоды. При расчете учитывается влияние влажности воздуха и скорости ветра на теплоощущения человека.
Tes - Эффективная температура на солнце - температура, которую ощущает человек, с поправкой на солнечный нагрев. Характеристика знойности погоды. Зависит от высоты солнца над горизонтом, облачности и скорости ветра. Ночью, в пасмурную погоду, а также при ветре 12 м/с и более поправка равна нулю.
P - Атмосферное давление - приведенное к уровню моря атмосферное давление.
Po - Атмосферное давление - измеренное на уровне метеостанции атмосферное давление.
Tmin - Минимальная температура - минимум температуры воздуха на высоте 2 м над землей.
Tmax - Максимальная температура - максимум температуры воздуха на высоте 2 м над землей.
R - Количество осадков - Количество выпавших осадков за 3 или 6 часов, мм.
SD - Снежный покров - Высота снежного покрова, см.